Regional Weather Roundup
Issued by NWS

Home | Current Version | Previous Version | Text Only | Print | Product List | Glossary Off
Versions: 1 2 3 4 5 6 7 8 9 10 11 12 13 14 15 16 17 18 19 20 21 22 23 24 25 26 27 28 29 30 31 32 33 34 35 36 37 38 39 40 41 42 43 44 45 46 47 48 49 50

000
ASUS45 KBOI 180910
RWRID

IDAHO REGIONAL WEATHER ROUNDUP
NATIONAL WEATHER SERVICE BOISE ID
300 AM MDT FRI AUG 18 2017

NOTE: "FAIR" INDICATES FEW OR NO CLOUDS BELOW 12000 FEET
WITH NO SIGNIFICANT WEATHER AND/OR OBSTRUCTIONS TO VISIBILITY

IDZ012-014-181000-
SOUTHWEST IDAHO


CITY           SKY/WX    TMP DP  RH WIND       PRES   REMARKS
BOISE          CLEAR     63  39  41 SE5       30.05S
CALDWELL       CLEAR     59  49  69 CALM      30.04S
MOUNTAIN HOME  CLEAR     62  35  36 NW7       30.05S
$$

IDZ016-017-181000-
SOUTHCENTRAL IDAHO


CITY           SKY/WX    TMP DP  RH WIND       PRES   REMARKS
BURLEY         CLEAR     57  42  57 SW8       30.11R
JEROME         CLEAR     61  38  42 SE7       30.11S
TWIN FALLS     CLEAR     63  36  36 S14       30.12S
$$

IDZ019>023-181000-
SOUTHEAST IDAHO


CITY           SKY/WX    TMP DP  RH WIND       PRES   REMARKS
IDAHO FALLS    CLEAR     53  41  63 CALM      30.16S
POCATELLO      CLEAR     55  36  48 E6        30.15R
REXBURG        CLEAR     53  40  61 NE5       30.16F
$$

IDZ006-010-011-018-031-032-181000-
CENTRAL IDAHO MOUNTAINS


CITY           SKY/WX    TMP DP  RH WIND       PRES   REMARKS
MCCALL         CLEAR     51  38  60 CALM      30.18S
HAILEY         CLEAR     55  41  58 NW9       30.19S
STANLEY          N/A     48  34  58 S5        30.30R
SALMON         CLEAR     52  42  69 CALM      30.16R
CHALLIS        CLEAR     57  36  45 CALM      30.19S
$$

IDZ002-004-006-007-026-181000-
NORTHERN IDAHO


CITY           SKY/WX    TMP DP  RH WIND       PRES   REMARKS
LEWISTON       CLEAR     65  40  39 SE5       30.03S
LOWELL           N/A     58  50  75 N3        30.09S
COEUR D`ALENE  CLEAR     54  45  71 NE3       30.06S
MULLAN PASS    CLEAR     57  34  41 VRB5      30.22F
$$



USA.gov is the U.S. government's official web portal to all federal, state and local government web resources and services.